KC1DMA Weather Reports


time (UTC)temp
C
wind
direction
speed
KPH
gust
KPH
rain 1hr
cm
rain 24hr
cm
rain mn
cm
humidity
%
barometer
mb
20260505211212 21 229 4.8 19.3 0.00 0.00 0.00 58 1010.2
20260505210709 22 162 6.4 6.4 0.00 0.00 0.00 56 1010.2
20260505210205 21 171 4.8 16.1 0.00 0.00 0.00 57 1010.4
20260505205703 21 196 3.2 11.3 0.00 0.00 0.00 57 1010.2
20260505205201 21 231 4.8 17.7 0.00 0.00 0.00 57 1010.1
20260505204656 21 260 3.2 25.7 0.00 0.00 0.00 57 1010.3
20260505204154 22 168 11.3 11.3 0.00 0.00 0.00 55 1010.2
20260505203651 22 174 6.4 17.7 0.00 0.00 0.00 56 1010.0
20260505203149 22 167 6.4 27.4 0.00 0.00 0.00 54 1010.2
20260505202644 22 180 4.8 17.7 0.00 0.00 0.00 55 1009.9
20260505202140 22 246 6.4 9.7 0.00 0.00 0.00 55 1010.1
20260505201637 22 171 14.5 19.3 0.00 0.00 0.00 55 1010.2
20260505201135 22 146 9.7 20.9 0.00 0.00 0.00 55 1010.3
20260505200632 22 192 3.2 8.0 0.00 0.00 0.00 55 1010.4
20260505200129 22 142 9.7 17.7 0.00 0.00 0.00 55 1010.5
20260505195625 22 182 3.2 12.9 0.00 0.00 0.00 54 1010.5
20260505195123 22 215 8.0 11.3 0.00 0.00 0.00 55 1010.2
20260505194615 23 62 3.2 6.4 0.00 0.00 0.00 55 1010.5
20260505194110 22 158 20.9 22.5 0.00 0.00 0.00 54 1010.4
20260505193608 22 124 9.7 25.7 0.00 0.00 0.00 55 1010.6
20260505193104 22 289 4.8 9.7 0.00 0.00 0.00 55 1010.4
20260505192603 23 234 3.2 6.4 0.00 0.00 0.00 54 1010.5
20260505192059 22 126 4.8 12.9 0.00 0.00 0.00 55 1010.7
20260505191552 23 195 11.3 16.1 0.00 0.00 0.00 54 1010.6
20260505191050 22 174 3.2 4.8 0.00 0.00 0.00 56 1010.8
20260505190550 22 174 3.2 12.9 0.00 0.00 0.00 56 1010.9
20260505190046 22 193 8.0 9.7 0.00 0.00 0.00 54 1010.8
20260505185543 22 230 8.0 16.1 0.00 0.00 0.00 55 1010.8
20260505185039 23 180 11.3 17.7 0.00 0.00 0.00 54 1010.8
20260505184536 23 190 1.6 9.7 0.00 0.00 0.00 55 1011.0
20260505184033 22 163 12.9 17.7 0.00 0.00 0.00 54 1011.0
20260505183529 23 173 11.3 17.7 0.00 0.00 0.00 54 1010.9
20260505183027 22 83 4.8 22.5 0.00 0.00 0.00 54 1010.9
20260505182523 23 194 4.8 11.3 0.00 0.00 0.00 53 1010.9
20260505182020 23 141 6.4 12.9 0.00 0.00 0.00 53 1010.8
20260505181517 23 185 6.4 17.7 0.00 0.00 0.00 53 1010.9
20260505181014 23 176 11.3 27.4 0.00 0.00 0.00 53 1010.7
20260505180509 23 180 8.0 14.5 0.00 0.00 0.00 51 1010.9
20260505180008 23 229 3.2 11.3 0.00 0.00 0.00 54 1010.9
20260505175502 23 110 8.0 17.7 0.00 0.00 0.00 53 1010.9
20260505175000 23 177 8.0 22.5 0.00 0.00 0.00 53 1011.0
20260505174457 23 221 8.0 8.0 0.00 0.00 0.00 54 1011.3
20260505173953 23 247 4.8 16.1 0.00 0.00 0.00 55 1011.3
20260505173444 23 175 0.0 9.7 0.00 0.00 0.00 55 1011.4
20260505172941 23 195 6.4 16.1 0.00 0.00 0.00 55 1011.3
20260505172440 22 211 8.0 9.7 0.00 0.00 0.00 55 1011.5
20260505171938 23 150 4.8 19.3 0.00 0.00 0.00 54 1011.4
20260505171435 22 178 6.4 14.5 0.00 0.00 0.00 56 1011.3
20260505170932 22 158 6.4 11.3 0.00 0.00 0.00 55 1011.0
20260505170428 23 170 6.4 8.0 0.00 0.00 0.00 54 1011.3
20260505165924 23 126 12.9 20.9 0.00 0.00 0.00 55 1011.8
20260505165420 22 166 4.8 6.4 0.00 0.00 0.00 57 1011.4
20260505164916 22 173 11.3 11.3 0.00 0.00 0.00 55 1011.6
20260505164413 22 30 3.2 4.8 0.00 0.00 0.00 59 1011.8
20260505163911 22 173 6.4 14.5 0.00 0.00 0.00 56 1011.6
20260505163409 22 297 4.8 8.0 0.00 0.00 0.00 58 1011.9
20260505162908 21 228 4.8 6.4 0.00 0.00 0.00 58 1011.9
20260505162403 21 228 4.8 6.4 0.00 0.00 0.00 58 1011.9
20260505161900 21 228 4.8 6.4 0.00 0.00 0.00 58 1012.1
20260505161357 22 157 12.9 24.1 0.00 0.00 0.00 57 1012.3
20260505160855 22 237 3.2 12.9 0.00 0.00 0.00 57 1012.1
20260505160353 22 177 4.8 8.0 0.00 0.00 0.00 57 1012.2
20260505153331 21 167 9.7 11.3 0.00 0.00 0.00 58 1012.6
20260505152828 21 251 3.2 6.4 0.00 0.00 0.00 57 1012.8
20260505152325 21 136 0.0 12.9 0.00 0.00 0.00 57 1012.8
20260505151820 21 162 4.8 8.0 0.00 0.00 0.00 58 1012.9
20260505151317 20 166 9.7 16.1 0.00 0.00 0.00 59 1013.0
20260505150814 20 151 14.5 17.7 0.00 0.00 0.00 59 1013.1
20260505150311 20 14 3.2 11.3 0.00 0.00 0.00 61 1013.1
20260505140240 17 119 4.8 6.4 0.00 0.00 0.00 70 1012.6
20260505130204 14 184 3.2 9.7 0.00 0.00 0.00 79 1012.7
20260505124654 14 184 3.2 9.7 0.00 0.00 0.00 79 1012.8
20260505124151 14 184 3.2 9.7 0.00 0.00 0.00 79 1012.8
20260505123648 14 106 3.2 9.7 0.00 0.00 0.00 80 1012.9
20260505123145 14 118 4.8 9.7 0.00 0.00 0.00 79 1012.9
20260505122641 14 51 8.0 8.0 0.00 0.00 0.00 79 1012.9
20260505122138 14 154 4.8 9.7 0.00 0.00 0.00 80 1013.0
20260505121634 14 96 6.4 11.3 0.00 0.00 0.00 80 1013.1
20260505121131 15 144 6.4 8.0 0.00 0.00 0.00 79 1013.1
20260505120627 14 268 1.6 9.7 0.00 0.00 0.00 81 1013.0
20260505120123 14 143 3.2 8.0 0.00 0.00 0.00 80 1013.1
20260505115617 13 289 4.8 6.4 0.00 0.00 0.00 81 1013.1
20260505115115 13 181 4.8 9.7 0.00 0.00 0.00 82 1013.1
20260505114612 13 133 3.2 8.0 0.00 0.00 0.00 83 1013.0
20260505114108 13 139 1.6 8.0 0.00 0.00 0.00 84 1013.1
20260505113605 11 87 6.4 8.0 0.00 0.00 0.00 90 1013.2
20260505113101 11 87 6.4 8.0 0.00 0.00 0.00 90 1013.2
20260505112558 11 87 6.4 8.0 0.00 0.00 0.00 90 1012.9
20260505112057 11 87 6.4 8.0 0.00 0.00 0.00 90 1012.9
20260505111555 11 87 6.4 8.0 0.00 0.00 0.00 90 1013.2
20260505111052 11 87 6.4 8.0 0.00 0.00 0.00 90 1012.8
20260505110548 11 87 6.4 8.0 0.00 0.00 0.00 90 1012.9
20260505102021 11 162 4.8 11.3 0.00 0.00 0.00 90 1012.4
20260505101519 11 63 6.4 9.7 0.00 0.00 0.00 90 1012.2
20260505101015 11 120 6.4 16.1 0.00 0.00 0.00 90 1012.0
20260505100507 11 60 3.2 9.7 0.00 0.00 0.00 90 1012.1
20260505100004 11 197 3.2 9.7 0.00 0.00 0.00 90 1012.2
20260505095500 11 98 6.4 9.7 0.00 0.00 0.00 90 1012.2
20260505094956 11 74 3.2 9.7 0.00 0.00 0.00 89 1011.9
20260505094453 11 99 3.2 14.5 0.00 0.00 0.00 89 1012.1
20260505093949 11 72 4.8 9.7 0.00 0.00 0.00 89 1012.0
20260505093446 11 151 3.2 6.4 0.00 0.00 0.00 89 1011.9
20260505092944 11 116 3.2 6.4 0.00 0.00 0.00 89 1012.0
20260505092441 11 155 4.8 6.4 0.00 0.00 0.00 88 1012.0
20260505091938 11 193 3.2 9.7 0.00 0.00 0.00 88 1012.0
20260505091436 11 256 0.0 6.4 0.00 0.00 0.00 88 1012.0
20260505090934 11 106 6.4 6.4 0.00 0.00 0.00 87 1011.8
20260505090432 11 123 3.2 12.9 0.00 0.00 0.00 87 1011.9
20260505085929 11 138 8.0 8.0 0.00 0.00 0.00 87 1011.9
20260505085426 11 64 1.6 9.7 0.00 0.00 0.00 86 1012.1
20260505084924 11 149 3.2 6.4 0.00 0.00 0.00 86 1011.9
20260505084422 11 126 6.4 9.7 0.00 0.00 0.00 86 1012.0
20260505083920 11 226 4.8 8.0 0.00 0.00 0.00 85 1012.0
20260505083417 12 126 3.2 11.3 0.00 0.00 0.00 85 1012.1
20260505082913 12 171 3.2 19.3 0.00 0.00 0.00 84 1012.1
20260505082409 12 147 6.4 12.9 0.00 0.00 0.00 84 1012.0
20260505081906 12 144 3.2 9.7 0.00 0.00 0.00 84 1012.0
20260505081403 12 121 4.8 8.0 0.00 0.00 0.00 84 1012.0
20260505080900 12 133 6.4 9.7 0.00 0.00 0.00 83 1012.0
20260505080356 12 89 4.8 6.4 0.00 0.00 0.00 83 1011.9
20260505075851 12 124 1.6 6.4 0.00 0.00 0.00 82 1012.1
20260505075348 12 159 8.0 9.7 0.00 0.00 0.00 82 1012.2
20260505074846 12 163 9.7 14.5 0.00 0.00 0.00 82 1012.0
20260505074342 12 120 4.8 8.0 0.00 0.00 0.00 82 1012.1
20260505073840 12 110 3.2 6.4 0.00 0.00 0.00 82 1012.1
20260505073337 12 91 3.2 14.5 0.00 0.00 0.00 82 1011.9
20260505072834 12 158 6.4 12.9 0.00 0.00 0.00 82 1012.0
20260505072330 12 140 12.9 14.5 0.00 0.00 0.00 82 1012.1
20260505071826 12 188 9.7 16.1 0.00 0.00 0.00 82 1012.2
20260505071323 12 139 8.0 9.7 0.00 0.00 0.00 81 1012.2
20260505070821 12 153 3.2 6.4 0.00 0.00 0.00 81 1012.2
20260505070318 12 129 6.4 8.0 0.00 0.00 0.00 81 1012.2
20260505065812 12 200 3.2 17.7 0.00 0.00 0.00 80 1012.2
20260505065309 12 72 3.2 12.9 0.00 0.00 0.00 80 1012.3
20260505064807 12 172 9.7 9.7 0.00 0.00 0.00 80 1012.3
20260505064304 12 107 6.4 8.0 0.00 0.00 0.00 80 1012.2
20260505063802 12 209 1.6 6.4 0.00 0.00 0.00 79 1012.1
20260505063258 12 113 4.8 4.8 0.00 0.00 0.00 79 1012.2
20260505062755 12 165 6.4 6.4 0.00 0.00 0.00 78 1012.3
20260505062252 12 122 11.3 14.5 0.00 0.00 0.00 78 1012.3
20260505061748 12 101 6.4 11.3 0.00 0.00 0.00 77 1012.4
20260505061247 12 136 4.8 4.8 0.00 0.00 0.00 77 1012.4
20260505060743 12 103 6.4 8.0 0.00 0.00 0.00 77 1012.4
20260505060241 12 166 9.7 9.7 0.00 0.00 0.00 77 1012.4
20260505055736 12 104 8.0 9.7 0.00 0.00 0.00 77 1012.3
20260505055232 12 141 1.6 8.0 0.00 0.00 0.00 76 1012.6
20260505054730 12 108 3.2 6.4 0.00 0.00 0.00 76 1012.6
20260505054228 12 98 1.6 9.7 0.00 0.00 0.00 76 1012.5
20260505053726 12 146 4.8 6.4 0.00 0.00 0.00 76 1012.6
20260505053222 12 111 1.6 9.7 0.00 0.00 0.00 77 1012.6
20260505052719 12 138 3.2 6.4 0.00 0.00 0.00 76 1012.8
20260505052216 12 149 0.0 12.9 0.00 0.00 0.00 76 1012.8
20260505051713 12 123 3.2 9.7 0.00 0.00 0.00 76 1012.9
20260505051211 12 184 1.6 6.4 0.00 0.00 0.00 76 1012.6
20260505050704 12 144 3.2 6.4 0.00 0.00 0.00 76 1012.7
20260505050202 12 135 6.4 6.4 0.00 0.00 0.00 75 1012.8
20260505041636 12 173 12.9 14.5 0.00 0.00 0.00 73 1013.0
20260505041134 12 129 6.4 8.0 0.00 0.00 0.00 73 1013.0
20260505040630 12 141 6.4 16.1 0.00 0.00 0.00 73 1013.2
20260505040128 12 137 4.8 9.7 0.00 0.00 0.00 73 1013.2
20260505035624 12 143 4.8 8.0 0.00 0.00 0.00 74 1012.9
20260505035120 12 119 1.6 6.4 0.00 0.00 0.00 74 1013.1
20260505034617 12 39 3.2 9.7 0.00 0.00 0.00 74 1013.1
20260505034114 12 141 4.8 6.4 0.00 0.00 0.00 74 1013.0
20260505033611 12 116 4.8 9.7 0.00 0.00 0.00 73 1013.0
20260505033109 12 167 8.0 12.9 0.00 0.00 0.00 74 1013.1
20260505032607 12 153 3.2 8.0 0.00 0.00 0.00 74 1013.0
20260505032103 12 131 8.0 9.7 0.00 0.00 0.00 73 1013.0
20260505031600 12 131 8.0 9.7 0.00 0.00 0.00 73 1013.3
20260505031056 12 156 3.2 4.8 0.00 0.00 0.00 74 1013.1
20260505030554 12 132 4.8 9.7 0.00 0.00 0.00 73 1013.2
20260505030049 12 135 8.0 8.0 0.00 0.00 0.00 73 1013.2
20260505025545 12 147 4.8 8.0 0.00 0.00 0.00 73 1013.2
20260505025044 12 148 8.0 9.7 0.00 0.00 0.00 73 1013.0
20260505024541 12 144 4.8 14.5 0.00 0.00 0.00 73 1013.0
20260505024038 12 74 3.2 6.4 0.00 0.00 0.00 74 1013.1
20260505023535 12 135 6.4 6.4 0.00 0.00 0.00 74 1013.2
20260505023033 12 131 4.8 4.8 0.00 0.00 0.00 74 1013.1
20260505022530 12 117 3.2 8.0 0.00 0.00 0.00 74 1013.1
20260505022027 12 105 4.8 11.3 0.00 0.00 0.00 73 1013.1
20260505021524 12 149 4.8 8.0 0.00 0.00 0.00 74 1013.3
20260505021020 12 138 3.2 9.7 0.00 0.00 0.00 73 1013.0
20260505020514 12 132 4.8 9.7 0.00 0.00 0.00 73 1013.0
20260505020012 12 108 6.4 6.4 0.00 0.00 0.00 73 1013.2
20260505015509 12 127 8.0 8.0 0.00 0.00 0.00 73 1013.2
20260505015006 12 107 6.4 14.5 0.00 0.00 0.00 73 1013.1
20260505014503 12 127 4.8 14.5 0.00 0.00 0.00 72 1013.2
20260505014000 12 146 6.4 6.4 0.00 0.00 0.00 72 1013.0
20260505013457 12 148 16.1 16.1 0.00 0.00 0.00 72 1013.1
20260505012954 12 123 3.2 4.8 0.00 0.00 0.00 71 1013.1
20260505012452 12 152 3.2 9.7 0.00 0.00 0.00 71 1013.0
20260505011949 12 93 4.8 16.1 0.00 0.00 0.00 70 1012.9
20260505011444 12 162 9.7 9.7 0.00 0.00 0.00 70 1012.9
20260505010942 12 128 9.7 12.9 0.00 0.00 0.00 69 1012.9
20260505010437 12 106 3.2 6.4 0.00 0.00 0.00 69 1012.7
20260505005933 12 88 8.0 12.9 0.00 0.00 0.00 68 1012.8
20260505005430 12 155 1.6 6.4 0.00 0.00 0.00 68 1012.6
20260505004928 13 145 6.4 9.7 0.00 0.00 0.00 67 1012.6
20260505004424 13 107 4.8 14.5 0.00 0.00 0.00 67 1012.6
20260505003921 13 100 3.2 9.7 0.00 0.00 0.00 66 1012.7
20260505003419 13 183 4.8 22.5 0.00 0.00 0.00 66 1012.3
20260505002915 13 182 4.8 6.4 0.00 0.00 0.00 65 1012.2
20260505002411 13 138 8.0 9.7 0.00 0.00 0.00 65 1012.0
20260505001910 13 154 3.2 9.7 0.00 0.00 0.00 65 1012.2
20260505001407 13 127 6.4 11.3 0.00 0.00 0.00 63 1012.0
20260505000904 13 130 6.4 8.0 0.00 0.00 0.00 63 1011.9
20260505000402 13 106 6.4 8.0 0.00 0.00 0.00 62 1011.8
20260504235858 14 217 0.0 11.3 0.00 0.00 0.00 62 1011.7
20260504235355 14 173 6.4 14.5 0.00 0.00 0.00 61 1011.7
20260504234851 14 166 14.5 17.7 0.00 0.00 0.00 60 1011.7
20260504234349 14 172 3.2 8.0 0.00 0.00 0.00 60 1011.6
20260504233846 15 112 4.8 17.7 0.00 0.00 0.00 59 1011.5
20260504233341 15 224 1.6 16.1 0.00 0.00 0.00 58 1011.3
20260504232838 15 287 4.8 4.8 0.00 0.00 0.00 57 1011.5
20260504232336 15 162 6.4 6.4 0.00 0.00 0.00 57 1011.4
20260504231832 15 109 9.7 14.5 0.00 0.00 0.00 56 1011.0
20260504231329 16 212 1.6 14.5 0.00 0.00 0.00 56 1011.2
20260504230825 16 221 4.8 6.4 0.00 0.00 0.00 54 1011.0
20260504230323 16 93 3.2 14.5 0.00 0.00 0.00 54 1010.9
20260504225821 16 218 3.2 17.7 0.00 0.00 0.00 53 1011.0
20260504225317 17 226 9.7 9.7 0.00 0.00 0.00 53 1011.2
20260504224815 17 157 11.3 12.9 0.00 0.00 0.00 52 1010.8
20260504224312 17 128 8.0 14.5 0.00 0.00 0.00 51 1011.2
20260504223808 17 165 8.0 16.1 0.00 0.00 0.00 51 1011.0
20260504223304 17 138 3.2 12.9 0.00 0.00 0.00 51 1011.2
20260504222801 17 174 4.8 14.5 0.00 0.00 0.00 50 1010.9
20260504222258 18 195 4.8 9.7 0.00 0.00 0.00 49 1011.0
20260504221755 17 155 6.4 19.3 0.00 0.00 0.00 49 1011.0
20260504221252 17 148 8.0 24.1 0.00 0.00 0.00 49 1011.2
20260504220749 18 193 6.4 17.7 0.00 0.00 0.00 47 1010.9
20260504220246 18 189 6.4 22.5 0.00 0.00 0.00 47 1011.0
20260504215743 18 81 6.4 19.3 0.00 0.00 0.00 47 1011.0
20260504215240 18 143 6.4 17.7 0.00 0.00 0.00 46 1011.0
20260504214736 18 288 4.8 9.7 0.00 0.00 0.00 45 1011.0
20260504214232 19 293 3.2 9.7 0.00 0.00 0.00 45 1011.0
20260504213729 18 180 4.8 11.3 0.00 0.00 0.00 45 1010.9
20260504213226 18 149 6.4 17.7 0.00 0.00 0.00 44 1010.9
20260504212723 20 197 6.4 17.7 0.00 0.00 0.00 43 1010.9
20260504212219 19 154 9.7 16.1 0.00 0.00 0.00 43 1010.9
20260504211717 18 100 6.4 20.9 0.00 0.00 0.00 44 1010.8